• Em Portugal
  • Lista de países
  • Para 7 dias
  • Temperatura da água
  • Mapas de satélite
  • Mapa do tempo
  • Widgets de tempo
  • user-avatar
    Iniciar Sessão

    Previsão horária em Soroki

    Hoje, 23 Outubro, Segunda-feira

    Tempo Temperatura Precipitação Vento Pressão Humidade
    00:00 +5°C° 0 mm 4 m/s 750 mmHg 74%
    01:00 +5°C° 0 mm 4 m/s 750 mmHg 74%
    02:00 +4°C° 0 mm 3 m/s 749 mmHg 75%
    03:00 +4°C° 0 mm 4 m/s 749 mmHg 75%
    04:00 +4°C° 0 mm 4 m/s 749 mmHg 76%
    05:00 +3°C° 0 mm 5 m/s 749 mmHg 76%
    06:00 +3°C° 0 mm 5 m/s 748 mmHg 76%
    07:00 +3°C° 0 mm 5 m/s 748 mmHg 76%
    08:00 +4°C° 0 mm 6 m/s 748 mmHg 75%
    09:00 +5°C° 0 mm 6 m/s 748 mmHg 73%
    10:00 +7°C° 0 mm 6 m/s 747 mmHg 70%
    11:00 +8°C° 0 mm 6 m/s 747 mmHg 67%
    12:00 +8°C° 0 mm 6 m/s 747 mmHg 65%
    13:00 +9°C° 0 mm 6 m/s 747 mmHg 62%
    14:00 +10°C° 0 mm 6 m/s 746 mmHg 60%
    15:00 +9°C° 0,1 mm 6 m/s 746 mmHg 61%
    16:00 +8°C° 0,1 mm 6 m/s 746 mmHg 62%
    17:00 +8°C° 0,1 mm 6 m/s 746 mmHg 64%
    18:00 +8°C° 0,3 mm 6 m/s 746 mmHg 67%
    19:00 +7°C° 0,3 mm 6 m/s 746 mmHg 70%
    20:00 +7°C° 0,3 mm 6 m/s 747 mmHg 73%
    21:00 +7°C° 0,4 mm 6 m/s 747 mmHg 74%
    22:00 +7°C° 0,4 mm 6 m/s 747 mmHg 76%
    23:00 +7°C° 0,4 mm 6 m/s 747 mmHg 77%

    Amanhã, 24 Outubro, Terça-feira

    Tempo Temperatura Precipitação Vento Pressão Humidade
    00:00 +7°C° 0,5 mm 6 m/s 747 mmHg 78%
    01:00 +5°C° 0,5 mm 6 m/s 748 mmHg 79%
    02:00 +5°C° 0,5 mm 6 m/s 748 mmHg 80%
    03:00 +5°C° 0,5 mm 6 m/s 748 mmHg 80%
    04:00 +5°C° 0,5 mm 6 m/s 748 mmHg 79%
    05:00 +5°C° 0,5 mm 6 m/s 749 mmHg 79%
    06:00 +5°C° 0,8 mm 6 m/s 749 mmHg 77%
    07:00 +4°C° 0,8 mm 6 m/s 750 mmHg 76%
    08:00 +4°C° 0,8 mm 6 m/s 750 mmHg 74%
    09:00 +4°C° 0,4 mm 6 m/s 751 mmHg 72%
    10:00 +5°C° 0,4 mm 6 m/s 751 mmHg 70%
    11:00 +5°C° 0,4 mm 6 m/s 752 mmHg 68%
    12:00 +5°C° 0,1 mm 6 m/s 752 mmHg 67%
    13:00 +7°C° 0,1 mm 5 m/s 752 mmHg 65%
    14:00 +7°C° 0,1 mm 5 m/s 753 mmHg 63%
    15:00 +7°C° 0 mm 5 m/s 753 mmHg 63%
    16:00 +7°C° 0 mm 5 m/s 753 mmHg 63%
    17:00 +7°C° 0 mm 5 m/s 753 mmHg 63%
    18:00 +6°C° 0 mm 5 m/s 754 mmHg 63%
    19:00 +6°C° 0 mm 5 m/s 755 mmHg 63%
    20:00 +6°C° 0 mm 5 m/s 755 mmHg 63%
    21:00 +5°C° 0 mm 5 m/s 755 mmHg 64%
    22:00 +5°C° 0 mm 4 m/s 756 mmHg 64%
    23:00 +4°C° 0 mm 4 m/s 756 mmHg 65%

    Depois de amanhã, 25 Outubro, Quarta-feira

    Tempo Temperatura Precipitação Vento Pressão Humidade
    00:00 +4°C° 0 mm 4 m/s 756 mmHg 66%
    01:00 +3°C° 0 mm 4 m/s 756 mmHg 67%
    02:00 +3°C° 0 mm 4 m/s 756 mmHg 68%
    03:00 +1°C° 0 mm 4 m/s 757 mmHg 69%
    04:00 +1°C° 0 mm 4 m/s 757 mmHg 69%
    05:00 0°C° 0 mm 4 m/s 757 mmHg 70%
    06:00 +1°C° 0 mm 4 m/s 757 mmHg 69%
    07:00 +1°C° 0 mm 4 m/s 758 mmHg 69%
    08:00 +1°C° 0 mm 4 m/s 758 mmHg 68%
    09:00 +3°C° 0 mm 4 m/s 758 mmHg 63%
    10:00 +5°C° 0 mm 4 m/s 758 mmHg 57%
    11:00 +6°C° 0 mm 4 m/s 758 mmHg 52%
    12:00 +7°C° 0 mm 4 m/s 758 mmHg 49%
    13:00 +9°C° 0 mm 3 m/s 758 mmHg 46%
    14:00 +9°C° 0 mm 3 m/s 758 mmHg 43%
    15:00 +9°C° 0 mm 3 m/s 758 mmHg 46%
    16:00 +8°C° 0 mm 2 m/s 758 mmHg 49%
    17:00 +7°C° 0 mm 2 m/s 758 mmHg 51%
    18:00 +7°C° 0 mm 2 m/s 758 mmHg 54%
    19:00 +6°C° 0 mm 2 m/s 758 mmHg 56%
    20:00 +5°C° 0 mm 2 m/s 758 mmHg 58%
    21:00 +5°C° 0 mm 2 m/s 758 mmHg 60%
    22:00 +5°C° 0 mm 2 m/s 758 mmHg 61%
    23:00 +4°C° 0 mm 2 m/s 758 mmHg 63%

    26 Outubro, Quinta-feira

    Tempo Temperatura Precipitação Vento Pressão Humidade
    00:00 +4°C° 0 mm 2 m/s 757 mmHg 64%
    01:00 +4°C° 0 mm 2 m/s 757 mmHg 65%
    02:00 +4°C° 0 mm 2 m/s 757 mmHg 66%
    03:00 +4°C° 0 mm 2 m/s 757 mmHg 66%
    04:00 +4°C° 0 mm 2 m/s 756 mmHg 66%
    05:00 +5°C° 0 mm 2 m/s 756 mmHg 65%
    06:00 +4°C° 0 mm 3 m/s 756 mmHg 64%
    07:00 +4°C° 0 mm 3 m/s 756 mmHg 63%
    08:00 +5°C° 0 mm 3 m/s 756 mmHg 62%
    09:00 +6°C° 0 mm 4 m/s 755 mmHg 61%
    10:00 +7°C° 0 mm 4 m/s 755 mmHg 59%
    11:00 +8°C° 0 mm 4 m/s 755 mmHg 57%
    12:00 +8°C° 0 mm 4 m/s 755 mmHg 60%
    13:00 +10°C° 0 mm 4 m/s 754 mmHg 63%
    14:00 +10°C° 0 mm 4 m/s 754 mmHg 65%
    15:00 +10°C° 0 mm 3 m/s 754 mmHg 69%
    16:00 +10°C° 0 mm 3 m/s 753 mmHg 72%
    17:00 +10°C° 0 mm 2 m/s 753 mmHg 76%
    18:00 +10°C° 0 mm 2 m/s 753 mmHg 77%
    19:00 +10°C° 0 mm 2 m/s 753 mmHg 79%
    20:00 +9°C° 0 mm 2 m/s 753 mmHg 80%
    21:00 +10°C° 0 mm 2 m/s 752 mmHg 80%
    22:00 +10°C° 0 mm 2 m/s 752 mmHg 79%
    23:00 +10°C° 0 mm 2 m/s 752 mmHg 78%

    27 Outubro, Sexta-feira

    Tempo Temperatura Precipitação Vento Pressão Humidade
    00:00 +10°C° 0 mm 3 m/s 751 mmHg 76%
    01:00 +10°C° 0 mm 3 m/s 751 mmHg 75%
    02:00 +10°C° 0 mm 3 m/s 750 mmHg 73%
    03:00 +10°C° 0,1 mm 3 m/s 749 mmHg 74%
    04:00 +9°C° 0,1 mm 3 m/s 749 mmHg 76%
    05:00 +9°C° 0,1 mm 2 m/s 748 mmHg 77%
    06:00 +10°C° 0 mm 3 m/s 748 mmHg 76%
    07:00 +10°C° 0 mm 3 m/s 748 mmHg 76%
    08:00 +10°C° 0 mm 3 m/s 747 mmHg 75%
    09:00 +12°C° 0 mm 4 m/s 747 mmHg 70%
    10:00 +13°C° 0 mm 4 m/s 746 mmHg 66%
    11:00 +14°C° 0 mm 5 m/s 746 mmHg 61%
    12:00 +15°C° 0 mm 5 m/s 745 mmHg 59%
    13:00 +17°C° 0 mm 4 m/s 745 mmHg 56%
    14:00 +18°C° 0 mm 4 m/s 744 mmHg 54%
    15:00 +17°C° 0,2 mm 3 m/s 744 mmHg 59%
    16:00 +16°C° 0,2 mm 3 m/s 743 mmHg 63%
    17:00 +15°C° 0,2 mm 2 m/s 743 mmHg 68%
    18:00 +14°C° 0,3 mm 2 m/s 742 mmHg 72%
    19:00 +13°C° 0,3 mm 3 m/s 742 mmHg 76%
    20:00 +12°C° 0,3 mm 3 m/s 742 mmHg 81%
    21:00 +12°C° 0,2 mm 3 m/s 742 mmHg 82%
    22:00 +11°C° 0,2 mm 3 m/s 741 mmHg 84%
    23:00 +11°C° 0,2 mm 3 m/s 741 mmHg 86%

    28 Outubro, Sábado

    Tempo Temperatura Precipitação Vento Pressão Humidade
    00:00 +10°C° 0,5 mm 4 m/s 741 mmHg 85%
    01:00 +9°C° 0,5 mm 5 m/s 741 mmHg 85%
    02:00 +9°C° 0,5 mm 5 m/s 741 mmHg 84%
    03:00 +8°C° 0,3 mm 5 m/s 741 mmHg 84%
    04:00 +8°C° 0,3 mm 5 m/s 742 mmHg 84%
    05:00 +8°C° 0,3 mm 5 m/s 742 mmHg 84%
    06:00 +8°C° 0 mm 5 m/s 742 mmHg 84%
    07:00 +7°C° 0 mm 5 m/s 742 mmHg 83%
    08:00 +7°C° 0 mm 5 m/s 742 mmHg 83%
    09:00 +8°C° 0 mm 5 m/s 742 mmHg 77%
    10:00 +9°C° 0 mm 5 m/s 742 mmHg 71%
    11:00 +10°C° 0 mm 6 m/s 742 mmHg 65%
    12:00 +11°C° 0 mm 6 m/s 742 mmHg 63%
    13:00 +11°C° 0 mm 6 m/s 741 mmHg 61%
    14:00 +11°C° 0 mm 6 m/s 741 mmHg 58%
    15:00 +12°C° 0,1 mm 5 m/s 741 mmHg 62%
    16:00 +11°C° 0,1 mm 4 m/s 740 mmHg 65%
    17:00 +10°C° 0,1 mm 3 m/s 740 mmHg 69%
    18:00 +10°C° 0 mm 3 m/s 740 mmHg 71%
    19:00 +9°C° 0 mm 2 m/s 740 mmHg 74%
    20:00 +9°C° 0 mm 2 m/s 740 mmHg 77%
    21:00 +9°C° 0,4 mm 2 m/s 739 mmHg 79%
    22:00 +8°C° 0,4 mm 2 m/s 739 mmHg 80%
    23:00 +8°C° 0,4 mm 2 m/s 738 mmHg 81%

    29 Outubro, Domingo

    Tempo Temperatura Precipitação Vento Pressão Humidade
    00:00 +8°C° 0,2 mm 3 m/s 737 mmHg 82%
    01:00 +8°C° 0,2 mm 3 m/s 737 mmHg 83%
    02:00 +7°C° 0,2 mm 4 m/s 736 mmHg 83%
    03:00 +7°C° 0,1 mm 4 m/s 735 mmHg 81%
    04:00 +7°C° 0,1 mm 4 m/s 735 mmHg 79%
    05:00 +7°C° 0,1 mm 4 m/s 734 mmHg 77%
    06:00 +7°C° 0,2 mm 4 m/s 734 mmHg 78%
    07:00 +7°C° 0,2 mm 5 m/s 734 mmHg 78%
    08:00 +7°C° 0,2 mm 5 m/s 734 mmHg 78%
    09:00 +8°C° 0 mm 5 m/s 734 mmHg 73%
    10:00 +8°C° 0 mm 6 m/s 734 mmHg 69%
    11:00 +9°C° 0 mm 7 m/s 734 mmHg 64%
    12:00 +9°C° 0 mm 7 m/s 734 mmHg 64%
    13:00 +9°C° 0 mm 7 m/s 734 mmHg 64%
    14:00 +7°C° 0 mm 8 m/s 734 mmHg 64%
    15:00 +7°C° 0 mm 8 m/s 734 mmHg 66%
    16:00 +7°C° 0 mm 8 m/s 734 mmHg 69%
    17:00 +6°C° 0 mm 8 m/s 734 mmHg 71%
    18:00 +6°C° 0,2 mm 8 m/s 734 mmHg 74%
    19:00 +6°C° 0,2 mm 8 m/s 735 mmHg 76%
    20:00 +6°C° 0,2 mm 8 m/s 735 mmHg 78%
    21:00 +6°C° 0,5 mm 8 m/s 736 mmHg 78%
    22:00 +6°C° 0,5 mm 9 m/s 736 mmHg 78%
    23:00 +5°C° 0,5 mm 9 m/s 737 mmHg 78%
    Mostrar mais